[[{"header":{"parameterUnit":"m.s-1","parameterCategory":1,"la1":30.2991,"la2":30.254,"lo1":-89.0895,"lo2":-89.0444,"dy":0.0017,"dx":0.0017,"nx":28,"ny":28,"refTime":"2024-03-27T03:00:00:Z","depth":0,"parameterNumber":2,"parameterNumberName":"U-component_of_WINDS"},"data":[0,0,0,0,0,0,0,0,0,0,0,0,0,0,0,0,0,0,0,0,0,0,0,0,0,0,0,0,0,0,0,0,0,0,0,0,0,0,0,0,0,0,0,0,0,0,0,0,0,0,0,0,0,0,0,0,0,0,1.1257,1.1257,0,1.1244,1.1244,1.1244,1.1229,1.1228,1.1228,1.1228,1.1213,1.1213,1.1212,0,0,0,0,0,0,0,0,0,0,0,0,0,1.1269,1.1269,1.1257,1.1257,1.1257,1.1244,1.1244,1.1244,1.1229,1.1228,1.1228,1.1228,1.1213,1.1213,1.1212,0,0,0,0,0,0,0,0,0,0,0,0,0,1.1261,1.1269,1.1257,1.1248,1.1247,1.1244,1.1244,1.1244,1.1229,1.1228,1.1228,1.1228,1.1213,1.1213,1.1212,1.1217,0,0,1.1211,1.1211,0,0,0,0,0,0,0,0,1.1261,1.126,1.1249,1.1249,1.1247,1.1238,1.1242,1.1235,1.1229,1.1236,1.1228,1.1228,1.1221,1.122,1.1218,1.1216,1.1216,1.1211,1.1211,1.1211,1.1211,0,0,0,0,0,0,0,1.1262,1.1261,1.1252,1.1249,1.1248,1.1244,1.1243,1.1241,1.123,1.1235,1.1234,1.1233,1.1221,1.1219,1.1218,1.1216,1.1211,1.1211,1.1211,1.1211,1.1218,1.1219,0,0,0,0,0,0,1.1264,1.1261,1.1252,1.1251,1.1254,1.1244,1.1243,1.1241,1.123,1.1228,1.1233,1.1232,1.1219,1.1218,1.1217,1.1223,1.1211,1.1211,1.1211,1.1218,1.1218,1.1219,0,0,0,0,0,0,1.1264,1.1263,1.1253,1.1256,1.1255,1.1245,1.1243,1.1241,1.1239,1.1229,1.1227,1.1233,1.1219,1.1218,1.1218,1.1222,1.1211,1.121,1.1217,1.1218,1.1218,1.1233,0,0,0,0,0,0,1.1265,1.1264,1.1265,1.1256,1.1254,1.1253,1.1243,1.1241,1.1239,1.1237,1.1228,1.1226,1.1219,1.1218,1.1217,1.1221,1.121,1.1217,1.1218,1.1218,1.1232,1.1234,1.1236,0,0,0,0,0,1.1265,1.1269,1.1265,1.1264,1.1256,1.1254,1.1252,1.1244,1.1239,1.1241,1.1234,1.1227,1.1222,1.1218,1.1217,1.1221,1.1217,1.1217,1.1218,1.1231,1.1234,1.1236,0,0,0,0,0,0,1.1278,1.1268,1.1263,1.1265,1.126,1.1251,1.1253,1.1247,1.1243,1.1242,1.1231,1.1229,1.1231,1.1226,1.1222,1.1226,1.1218,1.1219,1.1229,1.1231,1.1233,1.1233,1.121,0,0,0,0,0,1.1281,1.128,1.1271,1.1273,1.1271,1.1263,1.1261,1.1255,1.125,1.1248,1.1241,1.1236,1.1234,1.1232,1.1229,1.1232,1.123,1.1234,1.1236,1.1238,1.1238,1.124,1.1242,1.1221,1.1221,1.1221,0,0,1.1286,1.1281,1.1281,1.1275,1.1271,1.127,1.1261,1.126,1.1259,1.1247,1.1247,1.1243,1.1236,1.1238,1.1238,1.1234,1.1244,1.1239,1.124,1.124,1.1241,1.1243,1.1245,1.1222,1.1222,1.1222,0,0,1.1297,1.1293,1.1294,1.1291,1.1285,1.128,1.128,1.1273,1.1269,1.1269,1.1261,1.126,1.1255,1.1252,1.1249,1.1261,1.1254,1.126,1.1269,1.1271,1.1273,1.1274,1.1278,1.128,1.1261,1.1261,1.1261,0,1.1304,1.1303,1.1295,1.1296,1.1294,1.1284,1.1286,1.1283,1.1277,1.1276,1.1271,1.1267,1.1262,1.1263,1.1266,1.1264,1.1265,1.126,1.1273,1.1275,1.1276,1.128,1.1281,1.1262,1.1262,1.1261,1.1261,0,1.1313,1.1312,1.1314,1.1309,1.1308,1.1309,1.1302,1.1301,1.1296,1.1291,1.1292,1.1286,1.1282,1.1283,1.1277,1.1283,1.1281,1.1275,1.1267,1.1279,1.1282,1.1284,1.1263,1.1263,1.1262,1.1262,0,0,1.1328,1.1321,1.1322,1.132,1.1314,1.1314,1.1315,1.1312,1.1312,1.1309,1.1309,1.1307,1.1302,1.13,1.1294,1.1296,1.1306,1.129,1.129,1.1293,1.1313,1.1317,1.1319,1.1302,1.1302,1.1302,1.1314,0,1.1337,1.1339,1.1333,1.1336,1.1336,1.1328,1.1329,1.1326,1.1322,1.1321,1.1317,1.1315,1.1309,1.1308,1.1309,1.1304,1.131,1.1304,1.1302,1.1302,1.1303,1.1321,1.1324,1.1335,1.1315,1.1315,1.1315,0,1.1347,1.1345,1.1349,1.1344,1.1344,1.1345,1.1343,1.1342,1.1339,1.1336,1.1334,1.1328,1.1329,1.1323,1.1324,1.132,1.132,1.1318,1.1318,1.1317,1.1309,1.132,1.1338,1.134,1.1317,1.1317,1.1317,0,1.1358,1.1357,1.1359,1.1358,1.1352,1.1353,1.1351,1.1348,1.1347,1.1345,1.1345,1.1343,1.1342,1.1341,1.1335,1.133,1.1337,1.133,1.1335,1.1335,1.1335,1.1335,1.1354,1.1336,1.1336,1.1336,1.1336,0,1.1368,1.137,1.1364,1.1365,1.1368,1.1362,1.1364,1.1361,1.1359,1.1359,1.1353,1.1354,1.1346,1.1346,1.1342,1.1344,1.1344,1.1341,1.134,1.1341,1.1342,1.134,1.1339,1.1337,1.1337,1.1337,1.1336,0,1.138,1.1376,1.1378,1.1373,1.1373,1.1375,1.1371,1.1372,1.1369,1.137,1.137,1.1364,1.1364,1.1359,1.1357,1.1354,1.1358,1.1356,1.1359,1.1358,1.1364,1.1363,1.1381,1.1383,1.1365,1.1365,1.1365,0,1.1386,1.1388,1.1385,1.1385,1.1384,1.1384,1.1384,1.1378,1.1378,1.1376,1.1377,1.1377,1.1376,1.1377,1.1372,1.1372,1.1369,1.1376,1.1369,1.1371,1.1369,1.1369,1.1369,1.1376,1.1377,1.1377,1.1377,0,1.1398,1.1396,1.1396,1.1396,1.1396,1.1395,1.1394,1.1395,1.1389,1.139,1.139,1.139,1.1389,1.1389,1.1388,1.1386,1.138,1.138,1.1381,1.1382,1.1384,1.1383,1.1363,1.1379,1.1379,1.1378,1.1378,1.1378,1.1407,1.1409,1.1407,1.1407,1.1407,1.1406,1.1407,1.1405,1.1405,1.1405,1.1402,1.1403,1.1401,1.1399,1.1398,1.1399,1.1395,1.1397,1.1397,1.1397,1.1398,1.1385,1.1398,1.1398,1.1398,1.1398,1.1398,0,1.1418,1.1417,1.1418,1.1417,1.1418,1.1414,1.1414,1.1414,1.1415,1.1414,1.1415,1.1416,1.1416,1.1413,1.1413,1.1414,1.1412,1.1414,1.1414,1.1414,1.1401,1.14,1.1416,1.1416,1.1416,1.1416,1.1416,1.1416,1.1424,1.1427,1.1425,1.1428,1.1427,1.1428,1.1428,1.1428,1.1427,1.1429,1.143,1.1428,1.1426,1.1427,1.1427,1.1426,1.1426,1.143,1.1428,1.1416,1.1414,1.1413,1.1412,1.143,1.143,1.144,1.144,1.144]},{"header":{"parameterUnit":"m.s-1","parameterCategory":1,"la1":30.2991,"la2":30.254,"lo1":-89.0895,"lo2":-89.0444,"dy":0.0017,"dx":0.0017,"nx":28,"ny":28,"refTime":"2024-03-27T03:00:00:Z","depth":0,"parameterNumber":3,"parameterNumberName":"V-component_of_WINDS"},"data":[0,0,0,0,0,0,0,0,0,0,0,0,0,0,0,0,0,0,0,0,0,0,0,0,0,0,0,0,0,0,0,0,0,0,0,0,0,0,0,0,0,0,0,0,0,0,0,0,0,0,0,0,0,0,0,0,0,0,-6.8537,-6.8539,0,-6.8732,-6.8735,-6.8737,-6.8687,-6.8683,-6.8679,-6.8675,-6.8871,-6.8879,-6.8888,0,0,0,0,0,0,0,0,0,0,0,0,0,-6.8114,-6.8122,-6.8536,-6.8539,-6.8541,-6.8732,-6.8735,-6.8737,-6.8687,-6.8683,-6.8678,-6.8674,-6.8868,-6.8878,-6.8889,0,0,0,0,0,0,0,0,0,0,0,0,0,-6.8302,-6.8125,-6.8536,-6.8539,-6.8542,-6.8731,-6.8735,-6.8738,-6.8688,-6.8683,-6.8677,-6.8671,-6.8865,-6.8877,-6.889,-6.9087,0,0,-6.8931,-6.8936,0,0,0,0,0,0,0,0,-6.8292,-6.8318,-6.8536,-6.854,-6.8542,-6.8679,-6.8657,-6.8855,-6.869,-6.8633,-6.8675,-6.8669,-6.8811,-6.8829,-6.8878,-6.9096,-6.9104,-6.8932,-6.894,-6.8945,-6.8949,0,0,0,0,0,0,0,-6.8279,-6.8309,-6.8614,-6.854,-6.8543,-6.853,-6.855,-6.8695,-6.8752,-6.8637,-6.8634,-6.8658,-6.8812,-6.8865,-6.8882,-6.9107,-6.8931,-6.8943,-6.8951,-6.8956,-6.9497,-6.9503,0,0,0,0,0,0,-6.8264,-6.8299,-6.8607,-6.8619,-6.8401,-6.8542,-6.8565,-6.8641,-6.875,-6.8761,-6.8663,-6.8655,-6.8846,-6.8867,-6.8889,-6.9127,-6.8945,-6.8958,-6.8965,-6.949,-6.9498,-6.9505,0,0,0,0,0,0,-6.8255,-6.8292,-6.8599,-6.8459,-6.8497,-6.8555,-6.8641,-6.8648,-6.8701,-6.877,-6.8779,-6.8707,-6.8842,-6.887,-6.9038,-6.9133,-6.8964,-6.8976,-6.9483,-6.9493,-6.9502,-6.9604,0,0,0,0,0,0,-6.8243,-6.8289,-6.8366,-6.8461,-6.8504,-6.8748,-6.8647,-6.8656,-6.8725,-6.8717,-6.8814,-6.8824,-6.884,-6.9019,-6.9052,-6.9148,-6.8986,-6.9475,-6.9487,-6.9499,-6.9592,-6.9616,-6.9636,0,0,0,0,0,-6.8229,-6.8386,-6.837,-6.8408,-6.8602,-6.8753,-6.8778,-6.8794,-6.8733,-6.8809,-6.8853,-6.8821,-6.9117,-6.9037,-6.9073,-6.9175,-6.9469,-6.9484,-6.9498,-6.9583,-6.9611,-6.9635,0,0,0,0,0,0,-6.8299,-6.8398,-6.8382,-6.8575,-6.8656,-6.8745,-6.8842,-6.8824,-6.8923,-6.8911,-6.8925,-6.8947,-6.9119,-6.9163,-6.9072,-6.937,-6.9284,-6.9306,-6.9336,-6.9364,-6.9385,-6.9371,-6.8997,0,0,0,0,0,-6.8337,-6.8454,-6.8533,-6.8696,-6.8738,-6.8783,-6.885,-6.8855,-6.8939,-6.8973,-6.9029,-6.9111,-6.9222,-6.9295,-6.9401,-6.9598,-6.9618,-6.9686,-6.9707,-6.9725,-6.9744,-6.9852,-6.9883,-6.9553,-6.9553,-6.9552,0,0,-6.8416,-6.8485,-6.8558,-6.8712,-6.8775,-6.8895,-6.8812,-6.8942,-6.903,-6.8992,-6.9155,-6.9199,-6.9291,-6.9475,-6.9558,-6.9517,-6.984,-6.9743,-6.9757,-6.9767,-6.987,-6.9901,-6.9929,-6.9563,-6.9561,-6.9559,0,0,-6.8622,-6.8686,-6.8829,-6.8895,-6.8993,-6.9023,-6.9057,-6.9149,-6.9177,-6.9341,-6.9316,-6.9419,-6.9611,-6.9678,-6.9737,-6.9969,-6.9943,-7.0002,-7.0116,-7.0221,-7.0247,-7.027,-7.0354,-7.0383,-7.0021,-7.0022,-7.0022,0,-6.8709,-6.8889,-6.8904,-6.9037,-6.9105,-6.9078,-6.9222,-6.9284,-6.9412,-6.9459,-6.941,-6.9651,-6.9711,-6.991,-6.9967,-7.0015,-7.0054,-6.9992,-7.0243,-7.0266,-7.0288,-7.0367,-7.0398,-7.0028,-7.0027,-7.0027,-7.0026,0,-6.899,-6.9116,-6.9219,-6.9345,-6.9424,-6.9562,-6.9596,-6.9675,-6.9673,-6.9707,-6.9874,-6.9945,-7.0065,-7.0112,-7.0111,-7.0312,-7.0283,-7.0239,-7.0152,-7.0326,-7.0401,-7.0431,-7.0038,-7.0035,-7.0033,-7.0032,0,0,-6.9246,-6.938,-6.9417,-6.9474,-6.9581,-6.9677,-6.9813,-6.9932,-6.9999,-7.0088,-7.0201,-7.0364,-7.0324,-7.0391,-7.0397,-7.0489,-7.0669,-7.0433,-7.0436,-7.0475,-7.0894,-7.0928,-7.0963,-7.0652,-7.0658,-7.0662,-7.0887,0,-6.9463,-6.9704,-6.9722,-6.9939,-7.0055,-7.003,-7.0148,-7.0226,-7.0261,-7.0363,-7.04,-7.0516,-7.0454,-7.0495,-7.0585,-7.0628,-7.0753,-7.0612,-7.0757,-7.0762,-7.0736,-7.1002,-7.1038,-7.1246,-7.0916,-7.0921,-7.0925,0,-6.9747,-6.9847,-7.0076,-7.0167,-7.0216,-7.0322,-7.0433,-7.0532,-7.0618,-7.0637,-7.0713,-7.0706,-7.0844,-7.0751,-7.0941,-7.0845,-7.0905,-7.0935,-7.0943,-7.0958,-7.0855,-7.1024,-7.1313,-7.1345,-7.0971,-7.0967,-7.0964,0,-6.9912,-7.0103,-7.0265,-7.0314,-7.0424,-7.0499,-7.0548,-7.0629,-7.07,-7.0796,-7.0842,-7.0953,-7.1013,-7.1098,-7.1121,-7.1051,-7.131,-7.122,-7.1329,-7.1329,-7.1386,-7.1382,-7.1689,-7.1423,-7.1423,-7.1422,-7.1421,0,-7.0153,-7.0294,-7.0341,-7.0441,-7.0598,-7.0616,-7.0771,-7.0815,-7.0887,-7.0994,-7.0979,-7.1079,-7.1102,-7.1207,-7.1225,-7.1379,-7.1406,-7.1425,-7.1428,-7.1427,-7.1425,-7.1467,-7.1454,-7.143,-7.1429,-7.1427,-7.1425,0,-7.0364,-7.0401,-7.0576,-7.0666,-7.0692,-7.0804,-7.088,-7.0976,-7.1008,-7.1144,-7.1177,-7.1228,-7.135,-7.1381,-7.1526,-7.1538,-7.1721,-7.171,-7.1693,-7.1692,-7.1801,-7.179,-7.2146,-7.2194,-7.1896,-7.1899,-7.1901,0,-7.0515,-7.0624,-7.0726,-7.0797,-7.085,-7.0965,-7.1038,-7.1059,-7.1135,-7.1242,-7.1325,-7.1445,-7.1543,-7.1739,-7.1788,-7.1899,-7.1891,-7.2008,-7.1907,-7.1903,-7.1893,-7.1887,-7.1898,-7.2027,-7.203,-7.2033,-7.2035,0,-7.078,-7.0793,-7.09,-7.1013,-7.1101,-7.1191,-7.1276,-7.1335,-7.1368,-7.1454,-7.158,-7.1656,-7.1805,-7.1925,-7.2037,-7.2085,-7.2066,-7.2066,-7.2097,-7.2098,-7.2084,-7.2094,-7.1746,-7.2058,-7.2056,-7.2054,-7.2053,-7.2052,-7.0967,-7.1062,-7.115,-7.1269,-7.1336,-7.1416,-7.1511,-7.1556,-7.1662,-7.1787,-7.1792,-7.1929,-7.2012,-7.2161,-7.2215,-7.2321,-7.2286,-7.2331,-7.2343,-7.2354,-7.2364,-7.2066,-7.2341,-7.2341,-7.234,-7.234,-7.2339,0,-7.1231,-7.1286,-7.1396,-7.1518,-7.1611,-7.1586,-7.168,-7.1759,-7.1881,-7.1961,-7.2058,-7.2202,-7.2318,-7.2377,-7.2492,-7.2566,-7.256,-7.2595,-7.259,-7.2602,-7.2389,-7.2351,-7.2598,-7.2598,-7.2598,-7.2598,-7.2598,-7.2598,-7.138,-7.1541,-7.1565,-7.1758,-7.1812,-7.1948,-7.2003,-7.2077,-7.2141,-7.2304,-7.2401,-7.2439,-7.2511,-7.2631,-7.2736,-7.275,-7.2793,-7.2833,-7.2843,-7.2643,-7.2617,-7.2591,-7.2556,-7.2842,-7.2843,-7.3047,-7.3049,-7.305]}]]